| time (UTC) | temp C | wind direction | speed KPH | gust KPH | rain 1hr cm | rain 24hr cm | rain mn cm | humidity % | barometer mb |
| 20260504234846 | 20 | 269 | 0.0 | 0.0 | 0.00 | 0.00 | 0.00 | 63 | 996.1 |
| 20260504234344 | 20 | 269 | 0.0 | 0.0 | 0.00 | 0.00 | 0.00 | 61 | 996.4 |
| 20260504233840 | 20 | 269 | 0.0 | 0.0 | 0.00 | 0.00 | 0.00 | 60 | 996.4 |
| 20260504233336 | 21 | 269 | 0.0 | 0.0 | 0.00 | 0.00 | 0.00 | 59 | 996.4 |
| 20260504232833 | 21 | 269 | 0.0 | 0.0 | 0.00 | 0.00 | 0.00 | 56 | 996.4 |
| 20260504232330 | 21 | 269 | 0.0 | 0.0 | 0.00 | 0.00 | 0.00 | 57 | 996.4 |
| 20260504231827 | 22 | 269 | 0.0 | 0.0 | 0.00 | 0.00 | 0.00 | 56 | 996.4 |
| 20260504231323 | 23 | 269 | 0.0 | 0.0 | 0.00 | 0.00 | 0.00 | 56 | 996.4 |
| 20260504230819 | 23 | 269 | 0.0 | 0.0 | 0.00 | 0.00 | 0.00 | 48 | 996.4 |
| 20260504230318 | 23 | 269 | 0.0 | 0.0 | 0.00 | 0.00 | 0.00 | 45 | 996.4 |
| 20260504225816 | 23 | 269 | 0.0 | 0.0 | 0.00 | 0.00 | 0.00 | 46 | 996.8 |
| 20260504225312 | 25 | 269 | 0.0 | 0.0 | 0.00 | 0.00 | 0.00 | 41 | 996.4 |
| 20260504224809 | 25 | 269 | 0.0 | 0.0 | 0.00 | 0.00 | 0.00 | 39 | 996.4 |
| 20260504224306 | 25 | 269 | 0.0 | 0.0 | 0.00 | 0.00 | 0.00 | 39 | 996.4 |
| 20260504223803 | 26 | 269 | 0.0 | 0.0 | 0.00 | 0.00 | 0.00 | 38 | 996.4 |
| 20260504223258 | 26 | 269 | 0.0 | 0.0 | 0.00 | 0.00 | 0.00 | 37 | 996.8 |
| 20260504222755 | 26 | 269 | 0.0 | 0.0 | 0.00 | 0.00 | 0.00 | 37 | 996.8 |
| 20260504222252 | 25 | 269 | 3.2 | 3.2 | 0.00 | 0.00 | 0.00 | 34 | 996.4 |
| 20260504221750 | 25 | 276 | 0.0 | 0.0 | 0.00 | 0.00 | 0.00 | 35 | 996.8 |
| 20260504221247 | 26 | 300 | 1.6 | 1.6 | 0.00 | 0.00 | 0.00 | 36 | 996.8 |
| 20260504220743 | 26 | 286 | 0.0 | 0.0 | 0.00 | 0.00 | 0.00 | 33 | 996.8 |
| 20260504220241 | 27 | 206 | 0.0 | 0.0 | 0.00 | 0.00 | 0.00 | 31 | 996.8 |
| 20260504215738 | 26 | 176 | 0.0 | 0.0 | 0.00 | 0.00 | 0.00 | 36 | 996.8 |
| 20260504215234 | 27 | 294 | 0.0 | 0.0 | 0.00 | 0.00 | 0.00 | 39 | 996.8 |
| 20260504214730 | 27 | 294 | 0.0 | 0.0 | 0.00 | 0.00 | 0.00 | 35 | 996.4 |
| 20260504214227 | 27 | 300 | 0.0 | 0.0 | 0.00 | 0.00 | 0.00 | 37 | 996.4 |
| 20260504213724 | 27 | 324 | 0.0 | 0.0 | 0.00 | 0.00 | 0.00 | 31 | 996.8 |
| 20260504213220 | 26 | 310 | 0.0 | 0.0 | 0.00 | 0.00 | 0.00 | 33 | 996.8 |
| 20260504212717 | 26 | 264 | 0.0 | 0.0 | 0.00 | 0.00 | 0.00 | 36 | 996.4 |
| 20260504212214 | 26 | 264 | 0.0 | 0.0 | 0.00 | 0.00 | 0.00 | 38 | 996.8 |
| 20260504211711 | 27 | 264 | 0.0 | 0.0 | 0.00 | 0.00 | 0.00 | 36 | 996.8 |
| 20260504211207 | 26 | 264 | 0.0 | 0.0 | 0.00 | 0.00 | 0.00 | 36 | 996.8 |
| 20260504210705 | 25 | 264 | 0.0 | 0.0 | 0.00 | 0.00 | 0.00 | 40 | 996.4 |
| 20260504210202 | 25 | 264 | 0.0 | 0.0 | 0.00 | 0.00 | 0.00 | 40 | 996.8 |
| 20260504205659 | 26 | 264 | 0.0 | 0.0 | 0.00 | 0.00 | 0.00 | 38 | 996.8 |
| 20260504205155 | 26 | 280 | 0.0 | 0.0 | 0.00 | 0.00 | 0.00 | 37 | 996.8 |
| 20260504204654 | 25 | 246 | 0.0 | 0.0 | 0.00 | 0.00 | 0.00 | 40 | 996.8 |
| 20260504204153 | 26 | 282 | 3.2 | 3.2 | 0.00 | 0.00 | 0.00 | 33 | 996.8 |
| 20260504203651 | 26 | 286 | 0.0 | 0.0 | 0.00 | 0.00 | 0.00 | 36 | 996.8 |
| 20260504203148 | 25 | 287 | 0.0 | 0.0 | 0.00 | 0.00 | 0.00 | 34 | 996.8 |
| 20260504202643 | 25 | 282 | 0.0 | 0.0 | 0.00 | 0.00 | 0.00 | 32 | 997.2 |
| 20260504202140 | 26 | 282 | 0.0 | 0.0 | 0.00 | 0.00 | 0.00 | 33 | 997.2 |
| 20260504201637 | 25 | 0 | 0.0 | 0.0 | 0.00 | 0.00 | 0.00 | 34 | 996.8 |
| 20260504201135 | 25 | 0 | 1.6 | 1.6 | 0.00 | 0.00 | 0.00 | 37 | 997.2 |
| 20260504200632 | 25 | 59 | 0.0 | 0.0 | 0.00 | 0.00 | 0.00 | 34 | 997.2 |
| 20260504200128 | 26 | 118 | 0.0 | 0.0 | 0.00 | 0.00 | 0.00 | 32 | 997.2 |
| 20260504195624 | 26 | 132 | 0.0 | 0.0 | 0.00 | 0.00 | 0.00 | 37 | 997.5 |
| 20260504195121 | 25 | 282 | 0.0 | 0.0 | 0.00 | 0.00 | 0.00 | 34 | 997.5 |
| 20260504194617 | 25 | 270 | 0.0 | 0.0 | 0.00 | 0.00 | 0.00 | 36 | 997.2 |
| 20260504194113 | 25 | 270 | 0.0 | 0.0 | 0.00 | 0.00 | 0.00 | 38 | 997.5 |
| 20260504193610 | 25 | 308 | 3.2 | 3.2 | 0.00 | 0.00 | 0.00 | 36 | 997.5 |
| 20260504193109 | 25 | 300 | 0.0 | 0.0 | 0.00 | 0.00 | 0.00 | 35 | 997.5 |
| 20260504192606 | 25 | 276 | 3.2 | 3.2 | 0.00 | 0.00 | 0.00 | 37 | 997.5 |
| 20260504192104 | 25 | 308 | 0.0 | 0.0 | 0.00 | 0.00 | 0.00 | 37 | 997.9 |
| 20260504191602 | 24 | 242 | 3.2 | 3.2 | 0.00 | 0.00 | 0.00 | 36 | 997.9 |
| 20260504191057 | 24 | 232 | 0.0 | 0.0 | 0.00 | 0.00 | 0.00 | 35 | 997.9 |
| 20260504190554 | 24 | 282 | 0.0 | 0.0 | 0.00 | 0.00 | 0.00 | 36 | 997.9 |
| 20260504190050 | 24 | 288 | 4.8 | 6.4 | 0.00 | 0.00 | 0.00 | 34 | 998.2 |
| 20260504185547 | 23 | 72 | 0.0 | 0.0 | 0.00 | 0.00 | 0.00 | 40 | 998.2 |
| 20260504185044 | 23 | 80 | 0.0 | 0.0 | 0.00 | 0.00 | 0.00 | 35 | 998.2 |
| 20260504184539 | 24 | 84 | 0.0 | 0.0 | 0.00 | 0.00 | 0.00 | 39 | 998.2 |
| 20260504184035 | 24 | 87 | 0.0 | 0.0 | 0.00 | 0.00 | 0.00 | 40 | 998.2 |
| 20260504183532 | 25 | 300 | 1.6 | 1.6 | 0.00 | 0.00 | 0.00 | 39 | 998.6 |
| 20260504183030 | 24 | 74 | 0.0 | 0.0 | 0.00 | 0.00 | 0.00 | 39 | 998.6 |
| 20260504182527 | 23 | 328 | 0.0 | 0.0 | 0.00 | 0.00 | 0.00 | 42 | 998.6 |
| 20260504182024 | 23 | 78 | 0.0 | 0.0 | 0.00 | 0.00 | 0.00 | 44 | 998.9 |
| 20260504181521 | 23 | 269 | 0.0 | 0.0 | 0.00 | 0.00 | 0.00 | 43 | 998.9 |
| 20260504181020 | 23 | 305 | 0.0 | 0.0 | 0.00 | 0.00 | 0.00 | 41 | 998.9 |
| 20260504180518 | 23 | 293 | 0.0 | 0.0 | 0.00 | 0.00 | 0.00 | 39 | 999.2 |
| 20260504180017 | 23 | 288 | 0.0 | 0.0 | 0.00 | 0.00 | 0.00 | 41 | 998.9 |
| 20260504175513 | 23 | 288 | 0.0 | 0.0 | 0.00 | 0.00 | 0.00 | 46 | 999.2 |
| 20260504175010 | 23 | 304 | 3.2 | 3.2 | 0.00 | 0.00 | 0.00 | 47 | 999.2 |
| 20260504174508 | 22 | 66 | 3.2 | 3.2 | 0.00 | 0.00 | 0.00 | 44 | 999.2 |
| 20260504174005 | 22 | 156 | 0.0 | 0.0 | 0.00 | 0.00 | 0.00 | 42 | 998.9 |
| 20260504173502 | 22 | 218 | 0.0 | 0.0 | 0.00 | 0.00 | 0.00 | 45 | 998.9 |
| 20260504172959 | 22 | 278 | 0.0 | 0.0 | 0.00 | 0.00 | 0.00 | 47 | 999.2 |
| 20260504172455 | 22 | 295 | 4.8 | 6.4 | 0.00 | 0.00 | 0.00 | 42 | 999.6 |
| 20260504171951 | 22 | 288 | 0.0 | 0.0 | 0.00 | 0.00 | 0.00 | 42 | 999.6 |
| 20260504171449 | 22 | 262 | 0.0 | 0.0 | 0.00 | 0.00 | 0.00 | 45 | 999.6 |
| 20260504170945 | 22 | 262 | 3.2 | 3.2 | 0.00 | 0.00 | 0.00 | 44 | 999.6 |
| 20260504170441 | 22 | 85 | 0.0 | 0.0 | 0.00 | 0.00 | 0.00 | 48 | 999.6 |
| 20260504160401 | 21 | 279 | 0.0 | 0.0 | 0.00 | 0.00 | 0.00 | 51 | 1000.2 |
| 20260504150826 | 20 | 288 | 0.0 | 0.0 | 0.00 | 0.00 | 0.00 | 59 | 1001.3 |
| 20260504150322 | 20 | 308 | 0.0 | 0.0 | 0.00 | 0.00 | 0.00 | 51 | 1000.9 |
| 20260504141252 | 16 | 299 | 0.0 | 0.0 | 0.00 | 0.00 | 0.00 | 77 | 1001.3 |
| 20260504140749 | 15 | 299 | 0.0 | 0.0 | 0.00 | 0.00 | 0.00 | 78 | 1001.3 |
| 20260504140244 | 15 | 299 | 0.0 | 0.0 | 0.00 | 0.00 | 0.00 | 75 | 1001.3 |
| 20260504130713 | 10 | 300 | 0.0 | 0.0 | 0.00 | 0.00 | 0.00 | 93 | 1000.9 |
| 20260504130209 | 10 | 300 | 0.0 | 0.0 | 0.00 | 0.00 | 0.00 | 92 | 1000.9 |
| 20260504120133 | 5 | 306 | 0.0 | 0.0 | 0.00 | 0.00 | 0.00 | 99 | 1000.9 |
| 20260504110600 | 3 | 306 | 0.0 | 0.0 | 0.00 | 0.00 | 0.00 | 99 | 1000.6 |
| 20260504100522 | 3 | 306 | 0.0 | 0.0 | 0.00 | 0.00 | 0.00 | 99 | 1000.6 |
| 20260504081916 | 4 | 301 | 0.0 | 0.0 | 0.00 | 0.00 | 0.00 | 99 | 1000.2 |
| 20260504081412 | 4 | 301 | 0.0 | 0.0 | 0.00 | 0.00 | 0.00 | 99 | 1000.6 |
| 20260504080908 | 4 | 301 | 0.0 | 0.0 | 0.00 | 0.00 | 0.00 | 99 | 1000.6 |
| 20260504080405 | 4 | 301 | 0.0 | 0.0 | 0.00 | 0.00 | 0.00 | 99 | 1000.6 |
| 20260504070333 | 5 | 301 | 0.0 | 0.0 | 0.00 | 0.00 | 0.00 | 99 | 1000.9 |
| 20260504050715 | 6 | 301 | 0.0 | 0.0 | 0.00 | 0.00 | 0.00 | 98 | 1001.6 |
| 20260504050212 | 6 | 301 | 0.0 | 0.0 | 0.00 | 0.00 | 0.00 | 98 | 1001.3 |
| 20260504045710 | 6 | 301 | 0.0 | 0.0 | 0.00 | 0.00 | 0.00 | 98 | 1001.6 |
| 20260504045210 | 6 | 301 | 0.0 | 0.0 | 0.00 | 0.00 | 0.00 | 98 | 1001.3 |
| 20260504044708 | 7 | 301 | 0.0 | 0.0 | 0.00 | 0.00 | 0.00 | 98 | 1001.3 |
| 20260504044205 | 7 | 301 | 0.0 | 0.0 | 0.00 | 0.00 | 0.00 | 98 | 1001.3 |
| 20260504043702 | 7 | 301 | 0.0 | 0.0 | 0.00 | 0.00 | 0.00 | 97 | 1001.6 |
| 20260504043158 | 7 | 301 | 0.0 | 0.0 | 0.00 | 0.00 | 0.00 | 97 | 1001.6 |
| 20260504042656 | 7 | 301 | 0.0 | 0.0 | 0.00 | 0.00 | 0.00 | 97 | 1001.3 |
| 20260504042152 | 7 | 301 | 0.0 | 0.0 | 0.00 | 0.00 | 0.00 | 97 | 1001.6 |
| 20260504041648 | 7 | 301 | 0.0 | 0.0 | 0.00 | 0.00 | 0.00 | 97 | 1001.3 |
| 20260504041144 | 7 | 301 | 0.0 | 0.0 | 0.00 | 0.00 | 0.00 | 97 | 1001.3 |
| 20260504040642 | 7 | 301 | 0.0 | 0.0 | 0.00 | 0.00 | 0.00 | 97 | 1001.3 |
| 20260504040138 | 7 | 301 | 0.0 | 0.0 | 0.00 | 0.00 | 0.00 | 97 | 1001.6 |
| 20260504035635 | 7 | 301 | 0.0 | 0.0 | 0.00 | 0.00 | 0.00 | 97 | 1001.6 |
| 20260504035132 | 7 | 301 | 0.0 | 0.0 | 0.00 | 0.00 | 0.00 | 97 | 1001.3 |
| 20260504034630 | 7 | 301 | 0.0 | 0.0 | 0.00 | 0.00 | 0.00 | 97 | 1001.3 |
| 20260504034126 | 7 | 301 | 0.0 | 0.0 | 0.00 | 0.00 | 0.00 | 96 | 1001.6 |
| 20260504033624 | 7 | 301 | 0.0 | 0.0 | 0.00 | 0.00 | 0.00 | 96 | 1001.3 |
| 20260504033121 | 8 | 301 | 0.0 | 0.0 | 0.00 | 0.00 | 0.00 | 96 | 1001.3 |
| 20260504032618 | 8 | 301 | 0.0 | 0.0 | 0.00 | 0.00 | 0.00 | 96 | 1001.6 |
| 20260504032115 | 8 | 301 | 0.0 | 0.0 | 0.00 | 0.00 | 0.00 | 96 | 1001.3 |
| 20260504031612 | 8 | 301 | 0.0 | 0.0 | 0.00 | 0.00 | 0.00 | 95 | 1001.3 |
| 20260504031108 | 8 | 301 | 0.0 | 0.0 | 0.00 | 0.00 | 0.00 | 95 | 1001.3 |
| 20260504030605 | 8 | 301 | 0.0 | 0.0 | 0.00 | 0.00 | 0.00 | 95 | 1001.3 |
| 20260504025559 | 8 | 301 | 0.0 | 0.0 | 0.00 | 0.00 | 0.00 | 95 | 1001.3 |
| 20260504025056 | 8 | 301 | 0.0 | 0.0 | 0.00 | 0.00 | 0.00 | 94 | 1000.9 |
| 20260504024553 | 8 | 301 | 0.0 | 0.0 | 0.00 | 0.00 | 0.00 | 94 | 1001.3 |
| 20260504024049 | 9 | 300 | 0.0 | 0.0 | 0.00 | 0.00 | 0.00 | 93 | 1000.9 |
| 20260504023546 | 9 | 300 | 0.0 | 0.0 | 0.00 | 0.00 | 0.00 | 93 | 1000.9 |
| 20260504023042 | 9 | 300 | 0.0 | 0.0 | 0.00 | 0.00 | 0.00 | 92 | 1000.9 |
| 20260504022538 | 9 | 300 | 0.0 | 0.0 | 0.00 | 0.00 | 0.00 | 92 | 1000.6 |
| 20260504022035 | 9 | 300 | 0.0 | 0.0 | 0.00 | 0.00 | 0.00 | 93 | 1000.9 |
| 20260504021532 | 10 | 300 | 0.0 | 0.0 | 0.00 | 0.00 | 0.00 | 92 | 1000.9 |
| 20260504021029 | 10 | 300 | 0.0 | 0.0 | 0.00 | 0.00 | 0.00 | 91 | 1000.6 |
| 20260504020526 | 10 | 300 | 0.0 | 0.0 | 0.00 | 0.00 | 0.00 | 90 | 1000.6 |
| 20260504020022 | 10 | 300 | 0.0 | 0.0 | 0.00 | 0.00 | 0.00 | 89 | 1000.6 |
| 20260504015519 | 10 | 300 | 0.0 | 0.0 | 0.00 | 0.00 | 0.00 | 89 | 1000.2 |
| 20260504015015 | 10 | 300 | 0.0 | 0.0 | 0.00 | 0.00 | 0.00 | 89 | 1000.2 |
| 20260504014511 | 10 | 300 | 0.0 | 0.0 | 0.00 | 0.00 | 0.00 | 87 | 1000.6 |
| 20260504014008 | 11 | 300 | 0.0 | 0.0 | 0.00 | 0.00 | 0.00 | 86 | 1000.6 |
| 20260504013506 | 11 | 300 | 0.0 | 0.0 | 0.00 | 0.00 | 0.00 | 86 | 1000.2 |
| 20260504013002 | 11 | 300 | 0.0 | 0.0 | 0.00 | 0.00 | 0.00 | 84 | 1000.2 |
| 20260504012500 | 11 | 300 | 0.0 | 0.0 | 0.00 | 0.00 | 0.00 | 83 | 1000.2 |
| 20260504011958 | 11 | 300 | 0.0 | 0.0 | 0.00 | 0.00 | 0.00 | 81 | 999.9 |
| 20260504011454 | 12 | 300 | 0.0 | 0.0 | 0.00 | 0.00 | 0.00 | 81 | 1000.2 |
| 20260504010950 | 12 | 300 | 0.0 | 0.0 | 0.00 | 0.00 | 0.00 | 79 | 1000.2 |
| 20260504010446 | 12 | 300 | 0.0 | 0.0 | 0.00 | 0.00 | 0.00 | 79 | 1000.2 |
| 20260504005942 | 12 | 300 | 0.0 | 0.0 | 0.00 | 0.00 | 0.00 | 77 | 999.9 |
| 20260504005439 | 12 | 300 | 0.0 | 0.0 | 0.00 | 0.00 | 0.00 | 78 | 999.9 |
| 20260504004937 | 13 | 300 | 0.0 | 0.0 | 0.00 | 0.00 | 0.00 | 74 | 999.9 |
| 20260504004434 | 13 | 300 | 0.0 | 0.0 | 0.00 | 0.00 | 0.00 | 73 | 999.9 |
| 20260504003931 | 13 | 300 | 0.0 | 0.0 | 0.00 | 0.00 | 0.00 | 71 | 999.6 |
| 20260504003427 | 14 | 300 | 0.0 | 0.0 | 0.00 | 0.00 | 0.00 | 70 | 999.6 |
| 20260504002924 | 14 | 300 | 0.0 | 0.0 | 0.00 | 0.00 | 0.00 | 70 | 999.6 |
| 20260504002421 | 15 | 300 | 0.0 | 0.0 | 0.00 | 0.00 | 0.00 | 67 | 999.2 |
| 20260504001919 | 15 | 300 | 0.0 | 0.0 | 0.00 | 0.00 | 0.00 | 65 | 999.6 |
| 20260504001416 | 15 | 299 | 0.0 | 0.0 | 0.00 | 0.00 | 0.00 | 62 | 999.6 |
| 20260504000912 | 16 | 299 | 0.0 | 0.0 | 0.00 | 0.00 | 0.00 | 61 | 999.6 |
| 20260504000410 | 16 | 299 | 0.0 | 0.0 | 0.00 | 0.00 | 0.00 | 61 | 999.2 |
| 20260503235907 | 16 | 299 | 0.0 | 0.0 | 0.00 | 0.00 | 0.00 | 60 | 999.2 |
| 20260503235405 | 16 | 299 | 0.0 | 0.0 | 0.00 | 0.00 | 0.00 | 58 | 999.6 |